Aeroporto :







RITROVATECI SU...

 
LOGIN :

Iscrizione | Disclaimer

   EN    FR    IT 

 









Sommario :    VFR   VFR Marginale   IFR   IFR Intensivo   IFR Molto Intensivo
Visibilità : 
Base nubi : 
>= 8 km
>= 3000ft
5 / 8 km
1000 / 3000 ft
1500m / 5 km
500 / 1000 ft
800 / 1500m
200 / 500 ft
< 800m
< 200 ft
Simboli :   Temporali  Nebbia  Neve Forte  Precipitazioni Forti  Vento > 20 kt






- Altitudine del aeroporto : 14 ft
- Codice IATA : UVF


TLPL - Hewanorra Int.

ULTIMO METAR :
  • 271500Z 07014KT 9999 FEW018CB SCT026 31/26 Q1013 NOSIG

METARs OBSOLETI :
  • 271400Z 08017KT 9999 FEW016CB 30/24 Q1013 NOSIG
  • 271300Z 07011KT 9999 FEW016CB SCT022 28/24 Q1013 NOSIG

TAF TAF TLPL
Valido dal 27 a 12 ore il 28 a 12 ore UTC


271115Z 2712/2812 09015G25KT 9999 SCT023 SCT040
TEMPO 2712/2724 5000 SHRA FEW008 FEW014CB BKN018
PROB40
TEMPO 2714/2719 4000 TSRA SCT014CB
TEMPO 2803/2812 5000 SHRA FEW015CB BKN018 BKN040
FIR TTZP / America del Nord



MetMap, La meteo Aeronautica in un colpo d'occhio ! - Copyright ORBIFLY Dicembre 2007 - Disclaimer

ORBIFLY MET'MAP TEAM :

Programmazione e sviluppo : Alexandra Zaïnal
Concezione : Baudouin d'Aumeries
Aiuto per la programmazione : Marc-Olivier Méhu
Supporto tecnico e logistico : Manuel Goepfert
Aiuto per la traduzione : Arnaldo La Scala

Contatto : metmap@orbifly.com




FONTI E CREDITI :

   NOAA